• MPC Preparation (Info)

  • MPEC 1994-F03 : 1994 EF2

    The following Minor Planet Electronic Circular may be linked-to from your own Web pages, but must not otherwise be redistributed electronically.

    A form allowing access to any MPEC is at the bottom of this page.


    Read MPEC 1994-F02 Read MPEC 1994-F04


    M.P.E.C. 1994-F03                                Issued 1994 Mar. 18, 18:50 UT
    
         The Minor Planet Electronic Circulars contain information on unusual
             minor planets and routine data on comets.  They are published
       on behalf of Commission 20 of the International Astronomical Union by the
              Minor Planet Center, Smithsonian Astrophysical Observatory,
                              Cambridge, MA 02138, U.S.A.
    
              MARSDEN@CFA or WILLIAMS@CFA (.HARVARD.EDU, .SPAN or .BITNET)
    
                                       1994 EF2
    
    Discovered 1994 Mar. 11 by K. Lawrence on films taken on behalf of E. F. Helin
    for the Palomar Planet-Crossing Asteroid Survey.
    
    Available observations:
         J94E02F*2A1994 03 11.31424 09 45 23.29 +18 24 15.3          16.5        675
         J94E02F 2A1994 03 11.34045 09 45 21.79 +18 22 07.0                      675
         J94E02F F 1994 03 17.59950 09 42 19.40 +11 00 23.2          16   V      413
         J94E02F V 1994 03 17.60969 09 42 19.08 +10 59 48.2                      413
         J94E02F  C1994 03 18.62425 09 42 06.49 +09 58 09.7                      413
         J94E02F  C1994 03 18.62588 09 42 06.46 +09 58 03.9                      413
         J94E02F  C1994 03 18.63503 09 42 06.34 +09 57 30.9                      413
         J94E02F  C1994 03 18.63688 09 42 06.28 +09 57 24.4                      413
    
    Observer details:
    413 Siding Spring Observatory.  Observers R. H. McNaught, D. I. Steel.
        Measurer R. H. McNaught.  Uppsala Southern Schmidt, 1.0-m reflector + CCD.
    675 Palomar Mountain.  Observer K. Lawrence.  0.46-m Schmidt.
    
    Orbital elements:
    1994 EF2
    Epoch 1994 Mar. 9.0 TT = JDT 2449420.5                  Williams
    M  15.82839              (2000.0)            P               Q
    n   0.29006385     Peri.  123.57914     -0.35992582     -0.92849478
    a   2.2601659      Node   346.56171     +0.67117783     -0.18964751
    e   0.5108199      Incl.   23.15486     +0.64805379     -0.31926677
    P   3.40           H    16.5          G   0.15
    From 8 observations 1994 Mar. 11-18.
    
    Ephemeris:
    1994 EF2                 a,e,i = 2.26, 0.51, 23                  q = 1.1056
    Date    TT    R. A. (2000) Decl.     Delta      r     Elong.  Phase     V
    1994 03 09    09 47.42   +21 37.0    0.302    1.269   152.5    21.2    15.5
    1994 03 14    09 43.69   +15 00.9    0.336    1.296   149.9    22.7    15.8
    1994 03 19    09 42.06   +09 35.8    0.376    1.325   146.1    24.8    16.1
    1994 03 24    09 42.10   +05 12.0    0.422    1.354   142.1    26.9    16.5
    1994 03 29    09 43.45   +01 38.2    0.471    1.385   138.1    28.8    16.8
    1994 04 03    09 45.86   -01 16.1    0.524    1.417   134.3    30.3    17.2
    1994 04 08    09 49.16   -03 39.5    0.581    1.449   130.8    31.5    17.5
    1994 04 13    09 53.22   -05 39.1    0.640    1.481   127.5    32.5    17.8
    1994 04 18    09 57.93   -07 20.5    0.701    1.515   124.3    33.2    18.0
    1994 04 23    10 03.19   -08 47.7    0.765    1.548   121.3    33.7    18.3
    1994 04 28    10 08.90   -10 04.0    0.831    1.582   118.4    34.0    18.5
    1994 05 03    10 15.01   -11 11.9    0.899    1.616   115.7    34.2    18.7
    1994 05 08    10 21.46   -12 13.3    0.969    1.650   113.0    34.3    18.9
    1994 05 13    10 28.22   -13 09.8    1.040    1.684   110.3    34.2    19.1
    1994 05 18    10 35.24   -14 02.6    1.113    1.718   107.8    34.1    19.3
    1994 05 23    10 42.49   -14 52.6    1.188    1.751   105.2    33.9    19.5
    1994 05 28    10 49.93   -15 40.5    1.263    1.785   102.7    33.6    19.7
    1994 06 02    10 57.54   -16 26.8    1.340    1.819   100.3    33.3    19.8
    1994 06 07    11 05.30   -17 11.9    1.418    1.852    97.8    32.9    20.0
    1994 06 12    11 13.20   -17 56.2    1.497    1.886    95.4    32.4    20.1
    1994 06 17    11 21.23   -18 40.0    1.576    1.919    93.0    31.9    20.3
    1994 06 22    11 29.36   -19 23.4    1.656    1.951    90.5    31.4    20.4
    1994 06 27    11 37.59   -20 06.6    1.737    1.984    88.1    30.8    20.5
    1994 07 02    11 45.90   -20 49.6    1.818    2.016    85.7    30.2    20.6
    1994 07 07    11 54.29   -21 32.5    1.899    2.048    83.3    29.5    20.7
    1994 07 12    12 02.77   -22 15.4    1.981    2.079    80.9    28.9    20.8
    1994 07 17    12 11.32   -22 58.3    2.063    2.111    78.5    28.2    20.9
    1994 07 22    12 19.93   -23 41.1    2.144    2.141    76.1    27.4    21.0
    1994 07 27    12 28.61   -24 23.8    2.225    2.172    73.7    26.7    21.1
    
    Gareth V. Williams                                            M.P.E.C. 1994-F03
    

    Read MPEC 1994-F02 Read MPEC 1994-F04


    MPEC number:

    Enter an MPEC number in one of the following forms:

    • 1997-B01 (the full form)
    • J97B01 (the packed version of the full form)
    • B01 (the abbreviated form)